Roseburg, OR

1:30 AM PST on November 13, 2019 (GMT -0800)
Roseburg Regional

Weather History for KRBG - September, 2019

Change the Weather History Date:

Tuesday, September 10, 2019

  Actual Average Record
Temperature  
Mean Temperature 65 °F 66 °F  
Max Temperature 72 °F 80 °F 99 °F (1973)
Min Temperature 57 °F 52 °F 41 °F (1964)
Degree Days  
Heating Degree Days 0 1  
Month to date heating degree days 2 10  
Since 1 July heating degree days 7 31  
Cooling Degree Days 0 3  
Month to date cooling degree days 55 35  
Year to date cooling degree days 658 446  
Growing Degree Days 14 (Base 50)    
Moisture  
Dew Point 57 °F    
Average Humidity 79    
Maximum Humidity 100    
Minimum Humidity 57    
Precipitation  
Precipitation 0.07 in 0.02 in 0.36 in (1954)
Month to date precipitation 0.59 0.24  
Year to date precipitation 23.36 19.89  
Sea Level Pressure  
Sea Level Pressure 29.96 in    
Wind  
Wind Speed 3 mph (NE)    
Max Wind Speed 13 mph    
Max Gust Speed 16 mph    
Visibility 7 miles    
Events Fog , Rain , Thunderstorm    
T = Trace of Precipitation, MM = Missing Value Source: NWS Daily Summary

Daily Weather History Graph

Daily Weather History Graph

Search for Another Location

Airport or City:

Astronomy

Sep. 10, 2019 Rise Set
Actual Time 6:47 AM PDT 7:32 PM PDT
Civil Twilight 6:18 AM PDT 8:01 PM PDT
Nautical Twilight 5:44 AM PDT 8:35 PM PDT
Astronomical Twilight 5:08 AM PDT 9:11 PM PDT
Moon 6:18 PM PDT (9/10) 3:11 AM PDT (9/10)
Length of Visible Light 13h 42m
Length of Day
12h 45m
Waxing Gibbous, 90% of the Moon is Illuminated
Sep 10
Waxing Gibbous
Sep 13
Full
Sep 21
Last Quarter
Sep 28
New
Oct 5
First Quarter

Hourly Weather History & Observations

Time (PDT) Temp. Dew Point Humidity Pressure Visibility Wind Dir Wind Speed Gust Speed Precip Events Conditions
12:09 AM 57.9 °F 55.9 °F 93% 29.94 in 10.0 mi Calm Calm - N/A   Partly Cloudy
12:48 AM 57.2 °F 57.2 °F 100% 29.93 in 7.0 mi Calm Calm - N/A   Overcast
12:53 AM 57.9 °F 57.0 °F 97% 29.93 in 6.0 mi Calm Calm - N/A   Overcast
1:14 AM 57.9 °F 57.0 °F 97% 29.94 in 1.5 mi Calm Calm - N/A   Overcast
1:23 AM 57.9 °F 57.0 °F 97% 29.94 in 0.2 mi Calm Calm - N/A Fog Fog
1:48 AM 57.2 °F 57.2 °F 100% 29.94 in 0.5 mi Calm Calm - N/A Fog Fog
1:53 AM 57.9 °F 57.0 °F 97% 29.94 in 0.5 mi Calm Calm - N/A Fog Fog
2:04 AM 57.9 °F 57.0 °F 97% 29.94 in 0.2 mi SSE 3.5 mph - N/A Fog Fog
2:17 AM 57.9 °F 57.0 °F 97% 29.94 in 0.5 mi Calm Calm - N/A Fog Fog
2:42 AM 57.9 °F 57.0 °F 97% 29.94 in 1.2 mi Calm Calm - N/A   Overcast
2:53 AM 57.9 °F 57.0 °F 97% 29.94 in 0.8 mi Calm Calm - N/A   Mist
3:29 AM 57.9 °F 57.0 °F 97% 29.94 in 2.0 mi Calm Calm - N/A   Overcast
3:40 AM 57.9 °F 57.0 °F 97% 29.94 in 5.0 mi Calm Calm - N/A   Overcast
3:53 AM 57.9 °F 57.0 °F 97% 29.94 in 7.0 mi SSE 4.6 mph - N/A   Overcast
4:53 AM 57.9 °F 55.9 °F 93% 29.94 in 7.0 mi SE 3.5 mph - N/A   Overcast
5:53 AM 57.0 °F 55.9 °F 96% 29.93 in 3.0 mi SE 3.5 mph - N/A   Overcast
6:09 AM 57.0 °F 55.9 °F 96% 29.93 in 2.0 mi SE 4.6 mph - N/A   Overcast
6:26 AM 57.0 °F 55.9 °F 96% 29.93 in 1.0 mi SSE 3.5 mph - N/A   Overcast
6:53 AM 57.0 °F 55.9 °F 96% 29.94 in 2.0 mi Calm Calm - N/A   Overcast
7:11 AM 57.0 °F 55.9 °F 96% 29.94 in 4.0 mi SE 3.5 mph - N/A   Overcast
7:53 AM 57.0 °F 55.9 °F 96% 29.95 in 6.0 mi SSE 4.6 mph - N/A   Overcast
8:53 AM 59.0 °F 55.9 °F 90% 29.96 in 10.0 mi Calm Calm - N/A   Overcast
9:17 AM 60.1 °F 55.9 °F 86% 29.97 in 10.0 mi Calm Calm - N/A   Overcast
9:34 AM 61.0 °F 57.0 °F 87% 29.97 in 10.0 mi ENE 3.5 mph - N/A   Overcast
9:53 AM 63.0 °F 57.0 °F 81% 29.97 in 10.0 mi Calm Calm - N/A   Overcast
10:05 AM 63.0 °F 57.0 °F 81% 29.97 in 10.0 mi Calm Calm - N/A   Overcast
10:53 AM 63.0 °F 57.9 °F 84% 29.98 in 10.0 mi Calm Calm - 0.00 in Rain Light Rain
11:53 AM 64.9 °F 57.0 °F 75% 29.97 in 9.0 mi Calm Calm - 0.01 in Rain Light Rain
12:53 PM 70.0 °F 57.0 °F 63% 29.95 in 10.0 mi North - - 0.00 in   Mostly Cloudy
1:02 PM 70.0 °F 55.0 °F 59% 29.96 in 10.0 mi Variable 4.6 mph - N/A   Overcast
1:53 PM 68.0 °F 55.9 °F 65% 29.95 in 10.0 mi NW 10.4 mph 16.1 mph N/A   Mostly Cloudy
2:03 PM 64.9 °F 57.9 °F 78% 29.95 in 1.8 mi NW 5.8 mph - 0.03 in Rain Rain
2:15 PM 66.9 °F 57.9 °F 73% 29.95 in 4.0 mi NE 4.6 mph - 0.05 in Rain Light Rain
2:53 PM 71.1 °F 57.0 °F 61% 29.94 in 10.0 mi Variable 3.5 mph - 0.06 in   Mostly Cloudy
3:53 PM 71.1 °F 55.0 °F 57% 29.94 in 10.0 mi North 11.5 mph - 0.00 in   Partly Cloudy
4:10 PM 68.0 °F 57.0 °F 68% 29.95 in 10.0 mi North 8.1 mph - 0.00 in Rain , Thunderstorm Light Rain
4:25 PM 68.0 °F 57.9 °F 70% 29.95 in 10.0 mi NNE 6.9 mph - 0.00 in   Overcast
4:53 PM 70.0 °F 55.9 °F 61% 29.95 in 10.0 mi North 5.8 mph - 0.00 in   Overcast
5:53 PM 69.1 °F 55.0 °F 61% 29.96 in 10.0 mi NNW 6.9 mph - N/A   Mostly Cloudy
6:53 PM 66.9 °F 55.9 °F 68% 29.98 in 10.0 mi NNW 6.9 mph - N/A   Overcast
8:53 PM 64.9 °F 54.0 °F 68% 30.03 in 10.0 mi WNW 4.6 mph - N/A   Overcast
9:53 PM 63.0 °F 57.0 °F 81% 30.04 in 10.0 mi Calm Calm - N/A   Overcast
10:11 PM 64.0 °F 55.9 °F 75% 30.05 in 10.0 mi Calm Calm - N/A   Overcast
10:23 PM 63.0 °F 55.9 °F 78% 30.05 in 10.0 mi Calm Calm - N/A   Overcast
10:53 PM 61.0 °F 57.9 °F 90% 30.05 in 10.0 mi Calm Calm - N/A   Partly Cloudy
11:53 PM 60.1 °F 55.9 °F 86% 30.06 in 10.0 mi Calm Calm - N/A   Scattered Clouds